This is the latest recevied weather packets stored in our database for station/object KC3QJO. If no packets are shown the sender has not sent any weather packets the latest 10 day(s).
| Time | Temp. | Humidity | Pressure | Rain* | Wind** | Luminosity | Snow |
|---|---|---|---|---|---|---|---|
| 1778049352 | 18.89° C | 62% | 1008 hPa | 0 mm | - | 0 W/m² | - |
| 1778047851 | 18.89° C | 60% | 1008.2 hPa | 0 mm | - | 0 W/m² | - |
| 1778043664 | 18.89° C | 59% | 1008.6 hPa | 0 mm | - | 0 W/m² | - |
| 1778042755 | 18.89° C | 58% | 1008.7 hPa | 0 mm | - | 0 W/m² | - |
| 1778041854 | 19.44° C | 57% | 1008.7 hPa | 0 mm | - | 0 W/m² | - |
| 1778040651 | 20° C | 55% | 1008.7 hPa | 0 mm | - | 0 W/m² | - |
| 1778038854 | 20° C | 53% | 1008.8 hPa | 0 mm | - | 0 W/m² | - |
| 1778036153 | 20.56° C | 50% | 1008.6 hPa | 0 mm | - | 0 W/m² | - |
| 1778033759 | 21.67° C | 47% | 1008.8 hPa | 0 mm | - | 0 W/m² | - |
| 1778033457 | 21.67° C | 47% | 1008.7 hPa | 0 mm | - | 0 W/m² | - |
| 1778031959 | 22.22° C | 45% | 1008.5 hPa | 0 mm | - | 0 W/m² | - |
| 1778031355 | 22.22° C | 44% | 1008.4 hPa | 0 mm | - | 0 W/m² | - |
| 1778029258 | 22.78° C | 42% | 1007.9 hPa | 0 mm | - | 0 W/m² | - |
| 1778028355 | 22.78° C | 41% | 1007.7 hPa | 0 mm | - | 0 W/m² | - |
| 1778027152 | 23.33° C | 40% | 1007.5 hPa | 0 mm | - | 0 W/m² | - |
| 1778024752 | 23.89° C | 38% | 1007.2 hPa | 0 mm | - | 16 W/m² | - |
| 1778022351 | 24.44° C | 37% | 1007 hPa | 0 mm | - | 28 W/m² | - |
| 1778021751 | 24.44° C | 36% | 1007 hPa | 0 mm | - | 30 W/m² | - |
| 1778021452 | 25° C | 37% | 1006.9 hPa | 0 mm | - | 39 W/m² | - |
| 1778019654 | 25° C | 37% | 1006.7 hPa | 0 mm | - | 163 W/m² | - |
| 1778019355 | 25° C | 37% | 1006.6 hPa | 0 mm | - | 195 W/m² | - |
| 1778017851 | 25° C | 37% | 1006.6 hPa | 0 mm | - | 95 W/m² | - |
| 1778017553 | 25° C | 36% | 1006.6 hPa | 0 mm | - | 116 W/m² | - |
| 1778014859 | 25.56° C | 36% | 1006.7 hPa | 0 mm | - | 345 W/m² | - |
| 1778014252 | 25.56° C | 35% | 1006.6 hPa | 0 mm | - | 448 W/m² | - |
* Rain latest hour (hover to see other rain measurements)
** Current wind speed in m/s (hover to see current wind gust speed)